[[{"header":{"parameterUnit":"m.s-1","parameterCategory":2,"la1":30.2992,"la2":30.254,"lo1":-89.0895,"lo2":-89.0443,"dy":0.0025,"dx":0.0025,"nx":19,"ny":19,"refTime":"2026-04-10T09:00:00:Z","depth":"0","parameterNumber":2,"parameterNumberName":"U-component_of_CURRENTS"},"data":[0,0,0,0.0646,0.0646,0.0672,0.0672,0.0701,0.0701,0,0,0,0,0,0,0,0,0,0,0,0.0634,0.0634,0.0646,0.0646,0.0672,0.0672,0.0701,0.0701,0,0,0,0,0,0,0,0,0,0,0,0.0634,0.0634,0.0634,0.0647,0.0672,0.0672,0.0701,0.0683,0,0,0,0,0,0,0,0,0,0,0.0658,0.0648,0.0634,0.0634,0.0647,0.0672,0.0672,0.0682,0.0684,0.0688,0,0.069,0,0.0698,0.0703,0.0703,0,0,0,0.0647,0.0646,0.0654,0.0634,0.0647,0.0672,0.0661,0.0683,0.0685,0.0691,0.0691,0.0692,0.0698,0.0703,0.0703,0.0716,0.0716,0,0,0.0645,0.0639,0.0652,0.0655,0.0652,0.066,0.0662,0.0684,0.0685,0.0691,0.0693,0.0699,0.0703,0.0704,0.0716,0.0716,0,0,0,0.0641,0.0638,0.0645,0.0654,0.0659,0.0661,0.0663,0.0684,0.0687,0.0693,0.0699,0.0704,0.0704,0.0716,0.0716,0.0733,0,0,0,0.064,0.0636,0.0644,0.0641,0.0659,0.0673,0.0662,0.0685,0.0688,0.0699,0.0704,0.0704,0.0716,0.0716,0.0732,0.0793,0,0,0,0.0633,0.0635,0.0637,0.0641,0.0652,0.0673,0.0677,0.0686,0.0692,0.0703,0.0704,0.0716,0.0716,0.0732,0.0791,0.0963,0,0,0,0.0627,0.0638,0.0637,0.0651,0.0652,0.0669,0.0677,0.0689,0.0698,0.0704,0.0716,0.0716,0.0732,0.0789,0.0959,0.1109,0.114,0,0,0.0639,0.0639,0.0648,0.0649,0.0671,0.0665,0.0679,0.0693,0.0697,0.0709,0.0709,0.0732,0.0791,0.0962,0.11,0.1132,0,0,0,0.0652,0.0661,0.0667,0.0679,0.0684,0.0693,0.0694,0.0695,0.0709,0.0702,0.0725,0.0762,0.087,0.0951,0.0975,0.0993,0.0715,0.0715,0.0715,0.0673,0.0678,0.0693,0.0699,0.0705,0.0709,0.0727,0.0729,0.0711,0.0716,0.0767,0.09,0.0979,0.1001,0.1013,0.0729,0.0729,0.0729,0.0729,0.0705,0.0718,0.0714,0.0734,0.0733,0.0741,0.0755,0.0755,0.0856,0.0774,0.0879,0.0951,0.103,0.1033,0.073,0.073,0.073,0.073,0.073,0.0733,0.0737,0.0745,0.076,0.0773,0.0771,0.087,0.0876,0.0919,0.0993,0.1191,0.1191,0.1216,0.1082,0.1083,0.1084,0.1085,0.1086,0.1086,0.0758,0.0761,0.0779,0.0789,0.0805,0.0863,0.0966,0.1086,0.1262,0.128,0.1281,0.1269,0.1012,0.1022,0.1101,0.1099,0.1097,0.1095,0.1094,0.0796,0.0789,0.0818,0.0837,0.0906,0.1013,0.1124,0.1432,0.1589,0.1719,0.164,0.1457,0.1508,0.1488,0.1511,0.1714,0.1714,0.1714,0.1714,0.0813,0.0813,0.086,0.091,0.1011,0.1089,0.1376,0.1595,0.1825,0.191,0.1899,0.1791,0.1765,0.1822,0.1794,0.1819,0.2095,0.2096,0.2096,0.0829,0.0838,0.0889,0.0943,0.1053,0.1211,0.142,0.1617,0.196,0.2104,0.1898,0.1882,0.1702,0.166,0.1722,0.1681,0.1712,0,0]},{"header":{"parameterUnit":"m.s-1","parameterCategory":2,"la1":30.2992,"la2":30.254,"lo1":-89.0895,"lo2":-89.0443,"dy":0.0025,"dx":0.0025,"nx":19,"ny":19,"refTime":"2026-04-10T09:00:00:Z","depth":"0","parameterNumber":3,"parameterNumberName":"V-component_of_CURRENTS"},"data":[0,0,0,-0.0102,-0.0103,-0.0147,-0.0147,-0.0224,-0.0224,0,0,0,0,0,0,0,0,0,0,0,-0.0087,-0.0087,-0.0102,-0.0103,-0.0147,-0.0147,-0.0224,-0.0224,0,0,0,0,0,0,0,0,0,0,0,-0.0086,-0.0087,-0.0087,-0.0103,-0.0147,-0.0147,-0.0223,-0.0186,0,0,0,0,0,0,0,0,0,0,-0.0142,-0.0122,-0.0087,-0.0087,-0.0103,-0.0147,-0.0147,-0.0184,-0.0189,-0.0208,0,-0.0212,0,-0.0219,-0.0229,-0.023,0,0,0,-0.0108,-0.0118,-0.013,-0.0087,-0.0104,-0.0147,-0.0128,-0.0187,-0.0191,-0.0214,-0.0213,-0.0216,-0.022,-0.023,-0.023,-0.0326,-0.0327,0,0,-0.0105,-0.0097,-0.0127,-0.0133,-0.0112,-0.0127,-0.013,-0.0189,-0.0194,-0.0213,-0.0218,-0.0222,-0.023,-0.0231,-0.0326,-0.0326,0,0,0,-0.0095,-0.0095,-0.0105,-0.013,-0.0136,-0.0128,-0.0131,-0.0191,-0.0194,-0.0218,-0.0222,-0.0231,-0.0232,-0.0325,-0.0326,-0.0298,0,0,0,-0.0094,-0.0089,-0.0104,-0.01,-0.0134,-0.0161,-0.0132,-0.019,-0.0197,-0.0222,-0.0231,-0.0233,-0.0325,-0.0326,-0.0298,-0.0219,0,0,0,-0.0085,-0.0088,-0.0092,-0.0099,-0.0116,-0.016,-0.0167,-0.0192,-0.02,-0.023,-0.0233,-0.0324,-0.0326,-0.0298,-0.0221,-0.0048,0,0,0,-0.0077,-0.0094,-0.0092,-0.0119,-0.0116,-0.0167,-0.0167,-0.0209,-0.0237,-0.0231,-0.0325,-0.0326,-0.0298,-0.0223,-0.0052,0.0212,0.0251,0,0,-0.0096,-0.0096,-0.0114,-0.0114,-0.0159,-0.0161,-0.0213,-0.0245,-0.0261,-0.0306,-0.0308,-0.0298,-0.0222,-0.0049,0.0146,0.0189,0,0,0,-0.012,-0.013,-0.0146,-0.0169,-0.0201,-0.0215,-0.0257,-0.0265,-0.0296,-0.0281,-0.0329,-0.0281,-0.0171,-0.0024,0.0008,-0.0117,-0.0331,-0.0331,-0.0331,-0.0129,-0.015,-0.0182,-0.0213,-0.0239,-0.0266,-0.0262,-0.0281,-0.0324,-0.0334,-0.0285,-0.0165,-0.0017,0.0013,-0.0125,-0.035,-0.035,-0.035,-0.035,-0.0153,-0.0167,-0.0195,-0.0229,-0.0246,-0.0277,-0.0275,-0.0276,-0.0197,-0.0292,-0.0187,-0.0037,0.0052,-0.0109,-0.0349,-0.0349,-0.0349,-0.0349,-0.0349,-0.0147,-0.0154,-0.0179,-0.021,-0.022,-0.024,-0.009,-0.0116,-0.0118,-0.0046,0.0215,0.0218,0.0115,0.0034,0.0035,0.0036,0.0037,0.0038,0.0039,-0.0117,-0.0145,-0.0137,-0.0173,-0.0155,-0.0068,0.0053,0.0196,0.0347,0.033,0.0333,0.0145,-0.0044,-0.0015,0.0055,0.0052,0.005,0.0048,0.0047,-0.0091,-0.0089,-0.006,-0.0039,0.0058,0.0321,0.0399,0.0784,0.0881,0.1014,0.063,0.0557,0.062,0.0594,0.0639,0.0875,0.0875,0.0875,0.0875,-0.0046,-0.0056,0.0062,0.0159,0.0339,0.052,0.1061,0.127,0.1194,0.1077,0.0888,0.077,0.0743,0.0799,0.0769,0.0811,0.1085,0.1084,0.1084,-0.0005,0.0029,0.0166,0.0269,0.0481,0.0855,0.1386,0.1616,0.136,0.1062,0.0656,0.0647,0.0424,0.0392,0.0433,0.04,0.0452,0,0]}],[{"header":{"parameterUnit":"m.s-1","parameterCategory":2,"la1":30.2992,"la2":30.254,"lo1":-89.0895,"lo2":-89.0443,"dy":0.0025,"dx":0.0025,"nx":19,"ny":19,"refTime":"2026-04-10T09:00:00:Z","depth":"2","parameterNumber":2,"parameterNumberName":"U-component_of_CURRENTS"},"data":[0,0,0,0.0681,0.0682,0.0714,0.0714,0.0747,0.0747,0,0,0,0,0,0,0,0,0,0,0,0.0668,0.0668,0.0681,0.0682,0.0714,0.0714,0.0747,0.0747,0,0,0,0,0,0,0,0,0,0,0,0.0668,0.0668,0.0668,0.0682,0.0714,0.0714,0.0747,0.0725,0,0,0,0,0,0,0,0,0,0,0.0695,0.0683,0.0668,0.0668,0.0682,0.0714,0.0714,0.0724,0.0726,0.0731,0,0.0735,0,0.0743,0.075,0.075,0,0,0,0.0682,0.0681,0.0691,0.0668,0.0683,0.0714,0.0699,0.0725,0.0728,0.0734,0.0735,0.0737,0.0744,0.075,0.075,0.0767,0.0767,0,0,0.068,0.0673,0.0689,0.0692,0.0689,0.0698,0.07,0.0727,0.0728,0.0735,0.0738,0.0744,0.075,0.075,0.0767,0.0767,0,0,0,0.0675,0.0672,0.0681,0.0691,0.0698,0.0699,0.0702,0.0727,0.0731,0.0738,0.0745,0.075,0.0751,0.0767,0.0767,0.078,0,0,0,0.0674,0.0669,0.068,0.0676,0.0697,0.0714,0.0701,0.0729,0.0732,0.0744,0.075,0.0751,0.0767,0.0767,0.078,0.0839,0,0,0,0.0667,0.0668,0.0672,0.0676,0.069,0.0714,0.0719,0.073,0.0736,0.075,0.0751,0.0767,0.0767,0.078,0.0837,0.1003,0,0,0,0.0658,0.0672,0.0671,0.0689,0.0689,0.0711,0.0719,0.0734,0.0746,0.075,0.0767,0.0767,0.078,0.0836,0.0999,0.1098,0.1124,0,0,0.0673,0.0673,0.0684,0.0685,0.0712,0.0707,0.0724,0.074,0.0744,0.0758,0.0758,0.078,0.0837,0.1002,0.1091,0.1118,0,0,0,0.0688,0.0699,0.0706,0.0721,0.0729,0.0738,0.0742,0.0744,0.0759,0.0751,0.0774,0.0811,0.0915,0.0965,0.0985,0.0766,0.0766,0.0766,0.0766,0.0709,0.0717,0.0735,0.0743,0.075,0.0757,0.0774,0.0777,0.0762,0.0767,0.0814,0.0943,0.0988,0.1007,0.0778,0.0778,0.0778,0.0778,0.0778,0.0745,0.0758,0.0756,0.0777,0.0775,0.0784,0.08,0.0802,0.0901,0.0822,0.0923,0.0965,0.1032,0.0779,0.0779,0.0779,0.0778,0.0778,0.0778,0.0772,0.0774,0.0783,0.0798,0.0809,0.0808,0.0908,0.0918,0.0959,0.103,0.1191,0.1191,0.1036,0.1116,0.1117,0.1118,0.1119,0.1119,0.112,0.0792,0.0797,0.0812,0.0822,0.0838,0.0897,0.1,0.1115,0.1263,0.1271,0.1273,0.106,0.1049,0.1059,0.1134,0.1132,0.113,0.1129,0.1128,0.0826,0.0817,0.0848,0.0867,0.0937,0.1045,0.1152,0.1423,0.1566,0.1672,0.1435,0.1422,0.1468,0.145,0.1471,0.165,0.165,0.165,0.165,0.0837,0.0838,0.0887,0.0941,0.1042,0.1122,0.134,0.1413,0.1546,0.1521,0.1525,0.1383,0.1368,0.1399,0.1381,0.1396,0.1556,0.1555,0.1554,0.0849,0.0862,0.0913,0.0972,0.1084,0.1242,0.1331,0.125,0.1347,0.1532,0.1327,0.1679,0.1477,0.1451,0.1497,0.147,0.1493,0,0]},{"header":{"parameterUnit":"m.s-1","parameterCategory":2,"la1":30.2992,"la2":30.254,"lo1":-89.0895,"lo2":-89.0443,"dy":0.0025,"dx":0.0025,"nx":19,"ny":19,"refTime":"2026-04-10T09:00:00:Z","depth":"2","parameterNumber":3,"parameterNumberName":"V-component_of_CURRENTS"},"data":[0,0,0,-0.0178,-0.0179,-0.0226,-0.0226,-0.0305,-0.0305,0,0,0,0,0,0,0,0,0,0,0,-0.0161,-0.0161,-0.0178,-0.0179,-0.0226,-0.0226,-0.0304,-0.0305,0,0,0,0,0,0,0,0,0,0,0,-0.0161,-0.0161,-0.0161,-0.0179,-0.0226,-0.0226,-0.0304,-0.0265,0,0,0,0,0,0,0,0,0,0,-0.0218,-0.0197,-0.0161,-0.0161,-0.0179,-0.0226,-0.0226,-0.0263,-0.0268,-0.0287,0,-0.0292,0,-0.0299,-0.0311,-0.0311,0,0,0,-0.0183,-0.0193,-0.0206,-0.0161,-0.0179,-0.0226,-0.0206,-0.0266,-0.0271,-0.0293,-0.0293,-0.0296,-0.0301,-0.0311,-0.0311,-0.0404,-0.0404,0,0,-0.018,-0.0171,-0.0203,-0.0209,-0.0189,-0.0204,-0.0207,-0.0269,-0.0273,-0.0293,-0.0297,-0.0302,-0.0312,-0.0312,-0.0403,-0.0404,0,0,0,-0.017,-0.017,-0.0181,-0.0206,-0.0213,-0.0205,-0.0209,-0.027,-0.0274,-0.0298,-0.0303,-0.0312,-0.0313,-0.0403,-0.0403,-0.0365,0,0,0,-0.0169,-0.0163,-0.0179,-0.0175,-0.0211,-0.0239,-0.0209,-0.027,-0.0277,-0.0302,-0.0312,-0.0314,-0.0402,-0.0403,-0.0365,-0.0293,0,0,0,-0.0159,-0.0162,-0.0167,-0.0174,-0.0193,-0.0239,-0.0246,-0.0271,-0.028,-0.0311,-0.0314,-0.0402,-0.0403,-0.0365,-0.0295,-0.0169,0,0,0,-0.015,-0.0167,-0.0166,-0.0194,-0.0192,-0.0245,-0.0246,-0.0289,-0.0318,-0.0312,-0.0402,-0.0403,-0.0365,-0.0297,-0.0172,-0.0176,-0.0161,0,0,-0.0169,-0.0169,-0.0188,-0.0189,-0.0234,-0.0238,-0.0285,-0.0318,-0.0339,-0.0383,-0.0385,-0.0365,-0.0296,-0.0169,-0.0234,-0.0216,0,0,0,-0.0193,-0.0203,-0.0219,-0.0243,-0.0275,-0.0285,-0.0329,-0.0335,-0.0363,-0.0359,-0.0396,-0.0353,-0.0274,-0.0286,-0.0273,-0.0408,-0.0408,-0.0408,-0.0408,-0.0201,-0.0222,-0.0253,-0.0281,-0.0306,-0.0331,-0.0324,-0.0341,-0.0386,-0.0392,-0.0348,-0.0256,-0.0276,-0.0264,-0.0407,-0.0407,-0.0406,-0.0406,-0.0406,-0.0223,-0.0235,-0.026,-0.0293,-0.0304,-0.0331,-0.0324,-0.0325,-0.0264,-0.0344,-0.0269,-0.0279,-0.0247,-0.0404,-0.0404,-0.0405,-0.0405,-0.0405,-0.0405,-0.0217,-0.0222,-0.0245,-0.027,-0.0274,-0.0289,-0.0173,-0.018,-0.019,-0.0131,-0.0089,-0.0091,-0.0148,-0.0082,-0.0081,-0.008,-0.008,-0.0079,-0.0078,-0.0186,-0.0212,-0.0202,-0.0231,-0.0214,-0.0142,-0.0054,0.003,0.0056,-0.0001,-0.0002,-0.0143,-0.0154,-0.0128,-0.0066,-0.0068,-0.007,-0.0071,-0.0072,-0.0161,-0.0156,-0.0132,-0.0114,-0.0039,0.0075,0.0146,0.0262,0.0332,0.0332,0.0085,0.0076,0.0096,0.0082,0.0114,0.0237,0.0237,0.0237,0.0237,-0.0115,-0.0123,-0.0035,0.004,0.0158,0.0203,0.0393,0.0433,0.0366,0.0284,0.0282,0.0155,0.0142,0.0157,0.0141,0.0171,0.031,0.031,0.031,-0.0075,-0.0053,0.0045,0.0118,0.0248,0.0363,0.0465,0.0492,0.0389,0.0314,0.0304,0.024,0.0039,0.0023,0.003,0.0012,0.0053,0,0]}],[{"header":{"parameterUnit":"m.s-1","parameterCategory":2,"la1":30.2992,"la2":30.254,"lo1":-89.0895,"lo2":-89.0443,"dy":0.0025,"dx":0.0025,"nx":19,"ny":19,"refTime":"2026-04-10T09:00:00:Z","depth":"4","parameterNumber":2,"parameterNumberName":"U-component_of_CURRENTS"},"data":[0,0,0,0.0321,0.0323,0.0393,0.0393,0.0478,0.0479,0,0,0,0,0,0,0,0,0,0,0,0.0302,0.0302,0.0321,0.0323,0.0393,0.0393,0.0478,0.0479,0,0,0,0,0,0,0,0,0,0,0,0.0301,0.0302,0.0303,0.0323,0.0393,0.0393,0.0478,0.0426,0,0,0,0,0,0,0,0,0,0,0.0359,0.0345,0.0302,0.0303,0.0323,0.0393,0.0393,0.0424,0.043,0.0445,0,0.0461,0,0.047,0.0484,0.0485,0,0,0,0.0324,0.0341,0.0355,0.0303,0.0324,0.0393,0.0362,0.0427,0.0434,0.0452,0.0462,0.0465,0.0471,0.0485,0.0485,0.0614,0.0615,0,0,0.032,0.0318,0.035,0.0359,0.035,0.0359,0.0364,0.0431,0.0444,0.0463,0.0467,0.0473,0.0486,0.0486,0.0613,0.0614,0,0,0,0.0308,0.0316,0.0329,0.0355,0.0368,0.0361,0.0366,0.0441,0.0444,0.0468,0.0474,0.0486,0.0487,0.0613,0.0614,0.0737,0,0,0,0.0306,0.0309,0.0327,0.0327,0.0367,0.0407,0.0375,0.044,0.0447,0.0473,0.0486,0.0488,0.0612,0.0613,0.0732,0.0699,0,0,0,0.0297,0.0308,0.0317,0.0327,0.0355,0.0406,0.0413,0.0441,0.0451,0.0485,0.0488,0.0611,0.0613,0.0727,0.0693,0.0759,0,0,0,0.0291,0.0293,0.0317,0.0329,0.0355,0.04,0.0413,0.0455,0.0485,0.0486,0.0612,0.0614,0.0726,0.069,0.0756,0.0565,0,0,0,0.0281,0.0292,0.0298,0.032,0.0353,0.039,0.0464,0.0509,0.0522,0.0587,0.059,0.0733,0.0693,0.0758,0.0678,0,0,0,0,0.0286,0.0292,0.0307,0.0337,0.0378,0.0471,0.0501,0.0578,0.0689,0.055,0.0737,0.0706,0.0745,0.0623,0.0623,0.0623,0.0622,0.0622,0.0622,0.027,0.029,0.0312,0.0352,0.0408,0.0527,0.062,0.0728,0.0729,0.0824,0.0814,0.0942,0.0823,0.0866,0.0867,0.0867,0.0868,0.0868,0.0868,0.0254,0.026,0.0328,0.0371,0.0487,0.0591,0.0765,0.0833,0.0963,0.0951,0.0987,0.0769,0.0881,0.0878,0.0876,0.0875,0.0874,0.0873,0.0873,0.0229,0.0234,0.0287,0.0378,0.053,0.0668,0.0809,0.0934,0.1028,0.1069,0.0936,0.1,0.098,0.1111,0.1111,0.1112,0.1112,0.1112,0.1112,0.0183,0.0221,0.0293,0.0397,0.0504,0.0646,0.0852,0.0896,0.0993,0.0984,0.1081,0.1022,0.1014,0.0992,0.1115,0.1115,0.1114,0.1114,0.1114,0.013,0.0179,0.0268,0.0362,0.0541,0.0594,0.078,0.0839,0.0902,0.0879,0.0961,0.0968,0.0886,0.0881,0.085,0.0936,0.0934,0.0932,0,0.0108,0.0128,0.0267,0.038,0.0462,0.0561,0.0596,0.0653,0.0745,0.0754,0.0848,0.0938,0.0943,0.0844,0.0836,0.0796,0,0,0,0.0092,0.0144,0.0228,0.0342,0.0427,0.0478,0.0589,0.0598,0.0779,0.071,0.0881,0.0894,0.09,0.1125,0.1013,0.1003,0.096,0,0]},{"header":{"parameterUnit":"m.s-1","parameterCategory":2,"la1":30.2992,"la2":30.254,"lo1":-89.0895,"lo2":-89.0443,"dy":0.0025,"dx":0.0025,"nx":19,"ny":19,"refTime":"2026-04-10T09:00:00:Z","depth":"4","parameterNumber":3,"parameterNumberName":"V-component_of_CURRENTS"},"data":[0,0,0,0.0116,0.0116,0.0111,0.011,0.0148,0.0148,0,0,0,0,0,0,0,0,0,0,0,0.0121,0.0121,0.0116,0.0116,0.0111,0.011,0.0148,0.0148,0,0,0,0,0,0,0,0,0,0,0,0.0121,0.0121,0.0121,0.0116,0.0111,0.011,0.0148,0.014,0,0,0,0,0,0,0,0,0,0,0.014,0.0137,0.0121,0.0121,0.0116,0.0111,0.011,0.014,0.0141,0.0163,0,0.0165,0,0.0158,0.0152,0.0152,0,0,0,0.0115,0.0136,0.0136,0.0121,0.0116,0.0111,0.0113,0.014,0.0142,0.0165,0.0165,0.0166,0.0159,0.0152,0.0152,0.0302,0.0303,0,0,0.0115,0.0119,0.0135,0.0137,0.0119,0.0113,0.0113,0.014,0.0144,0.0165,0.0167,0.0159,0.0153,0.0153,0.0301,0.0302,0,0,0,0.0117,0.012,0.0118,0.0136,0.0132,0.0113,0.0112,0.0143,0.0143,0.0167,0.016,0.0153,0.0154,0.03,0.0302,0.0336,0,0,0,0.0117,0.012,0.0118,0.012,0.0131,0.0131,0.0114,0.0141,0.0143,0.0159,0.0153,0.0154,0.0298,0.0301,0.0332,0.0288,0,0,0,0.012,0.0121,0.0121,0.0121,0.0118,0.013,0.0131,0.0141,0.014,0.0152,0.0154,0.0297,0.03,0.0329,0.0285,0.0205,0,0,0,0.0123,0.0161,0.0122,0.0173,0.0118,0.0186,0.0131,0.0174,0.0194,0.0153,0.0298,0.0301,0.0328,0.0283,0.0205,0.0213,0,0,0,0.0181,0.0168,0.0203,0.0169,0.0246,0.0186,0.028,0.027,0.0247,0.0289,0.0292,0.0333,0.0285,0.0205,0.0389,0,0,0,0,0.023,0.0252,0.0272,0.03,0.0324,0.0346,0.0339,0.0343,0.0362,0.0271,0.0384,0.0352,0.0299,0.0309,0.0316,0.0315,0.0315,0.0315,0.0314,0.0299,0.0319,0.0386,0.0414,0.0456,0.0472,0.0477,0.0482,0.046,0.0484,0.0421,0.0434,0.0458,0.0498,0.0498,0.0498,0.0498,0.0498,0.0499,0.0384,0.0416,0.0456,0.0533,0.0561,0.0625,0.061,0.0577,0.0514,0.0527,0.0475,0.04,0.0503,0.0502,0.0502,0.0501,0.0501,0.05,0.05,0.0407,0.0427,0.0484,0.0576,0.0641,0.066,0.0625,0.0568,0.0509,0.0461,0.0388,0.0414,0.0356,0.0405,0.0405,0.0404,0.0404,0.0404,0.0403,0.0396,0.0452,0.0507,0.0599,0.064,0.0638,0.0578,0.0514,0.043,0.0384,0.0415,0.0399,0.0402,0.035,0.0396,0.0397,0.0398,0.0399,0.04,0.041,0.0429,0.0488,0.0539,0.0603,0.0589,0.0554,0.0437,0.0343,0.0272,0.0338,0.0343,0.0293,0.0297,0.0238,0.0252,0.0253,0.0253,0,0.0396,0.0417,0.0449,0.0481,0.0507,0.0537,0.0464,0.0401,0.0299,0.029,0.0301,0.0376,0.038,0.0329,0.0332,0.0268,0,0,0,0.0395,0.0399,0.0389,0.0423,0.0452,0.0431,0.0428,0.0378,0.0351,0.0289,0.0256,0.0255,0.0411,0.0374,0.0307,0.031,0.022,0,0]}]]